Flag for Kazakhstan Weather past 2 weeks in Aqtobe, Kazakhstan

Now
79 °F

Passing clouds.


Feels Like: 78 °F
Forecast: 56 / 74 °F
Wind: 13 mph from Northwest

Location: Aktjubinsk

Current Time: Aug 5, 2015 at 6:15:16 PM

Latest Report: Aug 5, 2015 at 5:30 PM


Visibility: N/A

Pressure: 29.80 "Hg

Humidity: 17%

Dew point: 30 °F

Location of AqtobeLocation

Historic Weather in Aqtobe — Graph

°F

Aqtobe temperature yesterday

Maximum temperature yesterday: 84 °F (at 1:30 PM)
Minimum temperature yesterday: 55 °F (at 5:30 AM)
Average temperature yesterday: 74 °F

Past Weeks' High & Low Weather Summary

 TemperatureHumidityPressure
High104 °F (Aug 2, 2:00 PM)100% (Jul 23, 12:00 AM)30.07 "Hg (Jul 23, 12:00 AM)
Low52 °F (Jul 29, 6:00 AM)10% (Jul 31, 4:30 PM)29.71 "Hg (Jul 21, 5:00 PM)
Average76 °F37%29.87 "Hg
* Reported Jul 21 5:00 PM — Aug 5 5:00 PM, Aqtobe, Weather by CustomWeather, © 2015

Note: Actual official high and low records may vary slightly from our data, if they occured in-between our weather recording intervals... More about our weather records

Advertising

Aqtobe weather history for previous 24 hours

 ConditionsComfort  
Time TempWeatherWind HumidityBarometerVisibility
5:00 PM
Wed, Aug 5
79 °FSunny.10 mph18%29.80 "Hg10 mi
4:30 PM79 °FPassing clouds.10 mph18%29.83 "HgN/A
4:00 PM79 °FSunny.17 mph20%29.83 "Hg10 mi
3:30 PM79 °FSunny.13 mph21%29.83 "Hg10 mi
3:00 PM79 °FSunny.10 mph20%29.83 "Hg10 mi
2:30 PM79 °FPassing clouds.15 mph21%29.83 "HgN/A
2:00 PM79 °FSunny.10 mph21%29.83 "Hg10 mi
1:30 PM79 °FPassing clouds.13 mph23%29.83 "HgN/A
1:00 PM79 °FPassing clouds.13 mph24%29.86 "HgN/A
12:30 PM77 °FPassing clouds.15 mph30%29.86 "HgN/A
12:00 PM77 °FSunny.15 mph28%29.86 "Hg10 mi
11:30 AM77 °FSunny.15 mph28%29.86 "Hg10 mi
11:00 AM75 °FSunny.13 mph29%29.86 "Hg10 mi
10:30 AM75 °FClear.10 mph29%29.86 "HgN/A
10:00 AM73 °FClear.8 mph33%29.89 "HgN/A
9:30 AM72 °FClear.8 mph33%29.89 "HgN/A
9:00 AM70 °FPassing clouds.6 mph38%29.89 "HgN/A
8:00 AM66 °FSunny.6 mph43%29.89 "Hg10 mi
7:30 AM66 °FSunny.6 mph43%29.89 "Hg10 mi
7:00 AM63 °FSunny.3 mph49%29.86 "Hg10 mi
6:30 AM59 °FSunny.3 mph55%29.89 "Hg10 mi
6:00 AM59 °FSunny.3 mph55%29.89 "Hg10 mi
5:30 AM57 °FClear.6 mph59%29.89 "Hg10 mi
5:00 AM57 °FClear.3 mph59%29.89 "Hg10 mi
4:30 AM61 °FClear.3 mph52%29.89 "Hg10 mi
4:00 AM63 °FClear.6 mph45%29.89 "Hg10 mi
3:30 AM63 °FClear.3 mph45%29.89 "Hg10 mi
3:00 AM61 °FClear.1 mph48%29.89 "Hg10 mi
2:30 AM63 °FClear.No wind45%29.89 "Hg10 mi
2:00 AM66 °FClear.3 mph40%29.89 "Hg10 mi
1:30 AM66 °FClear.3 mph40%29.89 "Hg10 mi
1:00 AM66 °FClear.6 mph40%29.89 "Hg10 mi
12:30 AM66 °FClear.3 mph40%29.89 "Hg10 mi
12:00 AM66 °FClear.3 mph37%29.89 "Hg10 mi
11:30 PM
Tue, Aug 4
68 °FClear.3 mph35%29.89 "Hg10 mi
11:00 PM70 °FClear.3 mph33%29.89 "Hg10 mi
10:30 PM72 °FClear.6 mph31%29.92 "Hg10 mi
10:00 PM73 °FClear.6 mph29%29.92 "Hg10 mi
9:30 PM75 °FClear.6 mph27%29.92 "Hg10 mi
9:00 PM77 °FClear.8 mph26%29.89 "Hg10 mi
8:30 PM81 °FSunny.10 mph23%29.89 "Hg10 mi
8:00 PM82 °FSunny.10 mph21%29.89 "Hg10 mi
7:30 PM82 °FSunny.13 mph20%29.89 "Hg10 mi
7:00 PM84 °FPassing clouds.10 mph19%29.92 "HgN/A
6:30 PM84 °FPassing clouds.10 mph19%29.92 "HgN/A
6:00 PM84 °FSunny.15 mph19%29.92 "Hg10 mi
Weather by CustomWeather, © 2015

See weather overviewHow to use our weather pages